| time (UTC) | temp F | wind direction | speed knots | gust knots | rain 1hr in | rain 24hr in | rain mn in | humidity % | barometer mb |
| 20260507155817 | 87 | 58 | 3.5 | 10.4 | 0.00 | 0.00 | 0.00 | 68 | 1000.6 |
| 20260507155313 | 88 | 34 | 5.2 | 14.8 | 0.00 | 0.00 | 0.00 | 67 | 1000.9 |
| 20260507154816 | 88 | 37 | 7.0 | 14.8 | 0.00 | 0.00 | 0.00 | 66 | 1001.0 |
| 20260507153816 | 88 | 39 | 4.3 | 11.3 | 0.00 | 0.00 | 0.00 | 68 | 1001.2 |
| 20260507153313 | 88 | 6 | 6.1 | 12.2 | 0.00 | 0.00 | 0.00 | 68 | 1001.0 |
| 20260507152817 | 87 | 68 | 7.8 | 12.2 | 0.00 | 0.00 | 0.00 | 69 | 1001.1 |
| 20260507152312 | 87 | 8 | 7.8 | 12.2 | 0.00 | 0.00 | 0.00 | 68 | 1001.4 |
| 20260507151816 | 88 | 25 | 5.2 | 10.4 | 0.00 | 0.00 | 0.00 | 67 | 1001.3 |
| 20260507151313 | 88 | 49 | 3.5 | 13.0 | 0.00 | 0.00 | 0.00 | 68 | 1001.4 |
| 20260507150816 | 89 | 51 | 7.0 | 13.0 | 0.00 | 0.00 | 0.00 | 67 | 1001.5 |
| 20260507150311 | 88 | 55 | 4.3 | 9.6 | 0.00 | 0.00 | 0.00 | 66 | 1001.3 |
| 20260507145815 | 87 | 76 | 5.2 | 9.6 | 0.00 | 0.00 | 0.00 | 67 | 1001.4 |
| 20260507145312 | 86 | 68 | 5.2 | 8.7 | 0.00 | 0.00 | 0.00 | 69 | 1001.5 |
| 20260507144816 | 86 | 79 | 3.5 | 9.6 | 0.00 | 0.00 | 0.00 | 69 | 1001.8 |
| 20260507144312 | 86 | 45 | 5.2 | 11.3 | 0.00 | 0.00 | 0.00 | 69 | 1001.8 |
| 20260507143814 | 86 | 80 | 4.3 | 11.3 | 0.00 | 0.00 | 0.00 | 71 | 1001.7 |
| 20260507143312 | 85 | 51 | 3.5 | 9.6 | 0.00 | 0.00 | 0.00 | 72 | 1001.6 |
| 20260507142815 | 85 | 61 | 2.6 | 10.4 | 0.00 | 0.00 | 0.00 | 73 | 1001.7 |
| 20260507142311 | 85 | 39 | 5.2 | 11.3 | 0.00 | 0.00 | 0.00 | 71 | 1001.9 |
| 20260507141814 | 85 | 48 | 7.0 | 11.3 | 0.00 | 0.00 | 0.00 | 71 | 1001.9 |
| 20260507140814 | 85 | 99 | 4.3 | 12.2 | 0.00 | 0.00 | 0.00 | 70 | 1001.8 |
| 20260507140311 | 85 | 90 | 0.9 | 7.8 | 0.00 | 0.00 | 0.00 | 72 | 1001.9 |
| 20260507133812 | 84 | 93 | 4.3 | 10.4 | 0.00 | 0.00 | 0.00 | 74 | 1001.9 |
| 20260507133310 | 84 | 71 | 4.3 | 9.6 | 0.00 | 0.00 | 0.00 | 74 | 1001.9 |
| 20260507131813 | 82 | 85 | 4.3 | 9.6 | 0.00 | 0.00 | 0.00 | 79 | 1001.9 |
| 20260507131310 | 82 | 58 | 2.6 | 9.6 | 0.00 | 0.00 | 0.00 | 79 | 1002.0 |
| 20260507130813 | 82 | 94 | 1.7 | 9.6 | 0.00 | 0.00 | 0.00 | 79 | 1002.0 |
| 20260507130322 | 82 | 99 | 5.2 | 9.6 | 0.00 | 0.00 | 0.00 | 77 | 1001.9 |
| 20260507125811 | 82 | 80 | 1.7 | 10.4 | 0.00 | 0.00 | 0.00 | 78 | 1002.0 |
| 20260507125310 | 83 | 65 | 5.2 | 10.4 | 0.00 | 0.00 | 0.00 | 77 | 1002.0 |
| 20260507124812 | 83 | 49 | 6.1 | 11.3 | 0.00 | 0.00 | 0.00 | 77 | 1001.9 |
| 20260507124309 | 82 | 52 | 5.2 | 11.3 | 0.00 | 0.00 | 0.00 | 76 | 1002.0 |
| 20260507123310 | 82 | 89 | 4.3 | 8.7 | 0.00 | 0.00 | 0.00 | 77 | 1001.9 |
| 20260507122812 | 82 | 83 | 3.5 | 9.6 | 0.00 | 0.00 | 0.00 | 77 | 1001.8 |
| 20260507122308 | 82 | 59 | 5.2 | 9.6 | 0.00 | 0.00 | 0.00 | 78 | 1001.8 |
| 20260507121810 | 81 | 99 | 4.3 | 9.6 | 0.00 | 0.00 | 0.00 | 79 | 1001.8 |
| 20260507121308 | 81 | 89 | 2.6 | 7.8 | 0.00 | 0.00 | 0.00 | 79 | 1001.8 |
| 20260507120321 | 81 | 62 | 0.0 | 7.8 | 0.00 | 0.00 | 0.00 | 79 | 1001.8 |
| 20260507115811 | 80 | 62 | 0.9 | 6.1 | 0.00 | 0.00 | 0.00 | 80 | 1001.7 |
| 20260507115307 | 80 | 71 | 2.6 | 5.2 | 0.00 | 0.00 | 0.00 | 80 | 1001.6 |
| 20260507114811 | 80 | 71 | 0.0 | 6.1 | 0.00 | 0.00 | 0.00 | 81 | 1001.5 |
| 20260507114307 | 79 | 71 | 0.9 | 6.1 | 0.00 | 0.00 | 0.00 | 81 | 1001.4 |
| 20260507113809 | 79 | 72 | 1.7 | 5.2 | 0.00 | 0.00 | 0.00 | 82 | 1001.5 |
| 20260507113307 | 79 | 72 | 0.0 | 5.2 | 0.00 | 0.00 | 0.00 | 83 | 1001.4 |
| 20260507112808 | 78 | 72 | 1.7 | 5.2 | 0.00 | 0.00 | 0.00 | 83 | 1001.2 |
| 20260507112307 | 78 | 72 | 1.7 | 5.2 | 0.00 | 0.00 | 0.00 | 83 | 1001.1 |
| 20260507111810 | 78 | 72 | 0.9 | 5.2 | 0.00 | 0.00 | 0.00 | 84 | 1001.0 |
| 20260507111307 | 77 | 72 | 0.9 | 4.3 | 0.00 | 0.00 | 0.00 | 84 | 1001.0 |
| 20260507110823 | 77 | 72 | 1.7 | 4.3 | 0.00 | 0.00 | 0.00 | 84 | 1000.9 |
| 20260507110319 | 77 | 72 | 2.6 | 4.3 | 0.00 | 0.00 | 0.00 | 84 | 1001.0 |
| 20260507105810 | 77 | 72 | 0.0 | 4.3 | 0.00 | 0.00 | 0.00 | 84 | 1000.9 |
| 20260507105307 | 77 | 73 | 0.0 | 4.3 | 0.00 | 0.00 | 0.00 | 84 | 1000.9 |
| 20260507104307 | 76 | 73 | 0.0 | 4.3 | 0.00 | 0.00 | 0.00 | 84 | 1000.7 |
| 20260507103810 | 76 | 73 | 0.9 | 4.3 | 0.00 | 0.00 | 0.00 | 84 | 1000.6 |
| 20260507103306 | 76 | 73 | 1.7 | 4.3 | 0.00 | 0.00 | 0.00 | 84 | 1000.6 |
| 20260507102813 | 76 | 69 | 0.0 | 5.2 | 0.00 | 0.00 | 0.00 | 84 | 1000.5 |
| 20260507101809 | 76 | 66 | 0.0 | 4.3 | 0.00 | 0.00 | 0.00 | 84 | 1000.5 |
| 20260507101305 | 76 | 66 | 0.0 | 5.2 | 0.00 | 0.00 | 0.00 | 84 | 1000.6 |
| 20260507100806 | 76 | 65 | 0.9 | 5.2 | 0.00 | 0.00 | 0.00 | 84 | 1000.5 |
| 20260507100305 | 76 | 65 | 0.0 | 4.3 | 0.00 | 0.00 | 0.00 | 84 | 1000.5 |
| 20260507095806 | 76 | 65 | 0.0 | 5.2 | 0.00 | 0.00 | 0.00 | 84 | 1000.5 |
| 20260507095306 | 76 | 65 | 1.7 | 5.2 | 0.00 | 0.00 | 0.00 | 84 | 1000.6 |
| 20260507094808 | 76 | 65 | 0.0 | 3.5 | 0.00 | 0.00 | 0.00 | 84 | 1000.5 |
| 20260507094307 | 76 | 65 | 0.0 | 4.3 | 0.00 | 0.00 | 0.00 | 84 | 1000.6 |
| 20260507092808 | 77 | 62 | 0.0 | 4.3 | 0.00 | 0.00 | 0.00 | 84 | 1000.5 |
| 20260507092307 | 77 | 62 | 0.9 | 4.3 | 0.00 | 0.00 | 0.00 | 84 | 1000.5 |
| 20260507091807 | 77 | 62 | 0.0 | 4.3 | 0.00 | 0.00 | 0.00 | 84 | 1000.4 |
| 20260507090808 | 77 | 62 | 0.9 | 4.3 | 0.00 | 0.00 | 0.00 | 84 | 1000.5 |
| 20260507090304 | 77 | 62 | 0.0 | 3.5 | 0.00 | 0.00 | 0.00 | 84 | 1000.4 |
| 20260507085808 | 77 | 62 | 0.0 | 3.5 | 0.00 | 0.00 | 0.00 | 84 | 1000.4 |
| 20260507085306 | 77 | 62 | 0.0 | 3.5 | 0.00 | 0.00 | 0.00 | 84 | 1000.4 |
| 20260507084806 | 77 | 62 | 0.9 | 4.3 | 0.00 | 0.00 | 0.00 | 84 | 1000.3 |
| 20260507084304 | 77 | 62 | 1.7 | 4.3 | 0.00 | 0.00 | 0.00 | 84 | 1000.3 |
| 20260507083807 | 77 | 62 | 0.9 | 4.3 | 0.00 | 0.00 | 0.00 | 84 | 1000.2 |
| 20260507083303 | 77 | 62 | 0.9 | 6.1 | 0.00 | 0.00 | 0.00 | 84 | 1000.3 |
| 20260507081806 | 77 | 66 | 1.7 | 6.1 | 0.00 | 0.00 | 0.00 | 84 | 1000.2 |
| 20260507081303 | 77 | 68 | 1.7 | 6.1 | 0.00 | 0.00 | 0.00 | 84 | 1000.1 |
| 20260507080806 | 77 | 68 | 0.9 | 6.1 | 0.00 | 0.00 | 0.00 | 84 | 1000.1 |
| 20260507075306 | 77 | 68 | 0.9 | 5.2 | 0.00 | 0.00 | 0.00 | 84 | 1000.2 |
| 20260507074806 | 77 | 68 | 0.9 | 7.8 | 0.00 | 0.00 | 0.00 | 84 | 1000.1 |
| 20260507074302 | 77 | 68 | 1.7 | 7.8 | 0.00 | 0.00 | 0.00 | 84 | 1000.1 |
| 20260507073806 | 77 | 72 | 3.5 | 6.1 | 0.00 | 0.00 | 0.00 | 84 | 1000.2 |
| 20260507072805 | 77 | 61 | 1.7 | 8.7 | 0.00 | 0.00 | 0.00 | 84 | 1000.2 |
| 20260507072306 | 77 | 69 | 4.3 | 8.7 | 0.00 | 0.00 | 0.00 | 84 | 1000.1 |
| 20260507071807 | 77 | 72 | 0.9 | 8.7 | 0.00 | 0.00 | 0.00 | 84 | 1000.1 |
| 20260507071302 | 77 | 76 | 2.6 | 8.7 | 0.00 | 0.00 | 0.00 | 84 | 1000.1 |
| 20260507070805 | 77 | 80 | 2.6 | 7.8 | 0.00 | 0.00 | 0.00 | 84 | 1000.2 |
| 20260507070302 | 78 | 87 | 1.7 | 7.8 | 0.00 | 0.00 | 0.00 | 84 | 1000.2 |
| 20260507065817 | 78 | 76 | 4.3 | 8.7 | 0.00 | 0.00 | 0.00 | 84 | 1000.3 |
| 20260507065305 | 78 | 62 | 2.6 | 8.7 | 0.00 | 0.00 | 0.00 | 84 | 1000.3 |
| 20260507064804 | 78 | 72 | 3.5 | 8.7 | 0.00 | 0.00 | 0.00 | 83 | 1000.3 |
| 20260507063805 | 78 | 69 | 4.3 | 7.8 | 0.00 | 0.00 | 0.00 | 83 | 1000.5 |
| 20260507063301 | 78 | 65 | 4.3 | 7.8 | 0.00 | 0.00 | 0.00 | 83 | 1000.5 |
| 20260507062804 | 78 | 68 | 4.3 | 7.8 | 0.00 | 0.00 | 0.00 | 83 | 1000.5 |
| 20260507062301 | 78 | 61 | 1.7 | 8.7 | 0.00 | 0.00 | 0.00 | 83 | 1000.6 |
| 20260507061804 | 78 | 62 | 3.5 | 8.7 | 0.00 | 0.00 | 0.00 | 83 | 1000.8 |
| 20260507061300 | 78 | 75 | 1.7 | 7.8 | 0.00 | 0.00 | 0.00 | 83 | 1000.7 |
| 20260507060804 | 78 | 66 | 3.5 | 7.8 | 0.00 | 0.00 | 0.00 | 83 | 1000.8 |
| 20260507060300 | 78 | 62 | 1.7 | 5.2 | 0.00 | 0.00 | 0.00 | 83 | 1000.8 |
| 20260507055803 | 78 | 65 | 0.9 | 6.1 | 0.00 | 0.00 | 0.00 | 83 | 1000.9 |
| 20260507055300 | 78 | 66 | 1.7 | 6.1 | 0.00 | 0.00 | 0.00 | 83 | 1000.9 |
| 20260507054803 | 78 | 68 | 0.9 | 6.1 | 0.00 | 0.00 | 0.00 | 83 | 1001.0 |
| 20260507054301 | 78 | 66 | 0.9 | 6.1 | 0.00 | 0.00 | 0.00 | 83 | 1001.1 |
| 20260507053803 | 78 | 68 | 1.7 | 6.1 | 0.00 | 0.00 | 0.00 | 83 | 1001.1 |
| 20260507053259 | 78 | 69 | 0.9 | 6.1 | 0.00 | 0.00 | 0.00 | 83 | 1001.2 |
| 20260507052804 | 78 | 66 | 2.6 | 6.1 | 0.00 | 0.00 | 0.00 | 83 | 1001.0 |
| 20260507052300 | 78 | 78 | 0.9 | 5.2 | 0.00 | 0.00 | 0.00 | 83 | 1001.2 |
| 20260507051803 | 78 | 78 | 1.7 | 6.1 | 0.00 | 0.00 | 0.00 | 83 | 1001.2 |
| 20260507051259 | 78 | 78 | 1.7 | 6.1 | 0.00 | 0.00 | 0.00 | 83 | 1001.2 |
| 20260507050804 | 78 | 79 | 1.7 | 5.2 | 0.00 | 0.00 | 0.00 | 83 | 1001.3 |
| 20260507050259 | 78 | 80 | 0.9 | 6.1 | 0.00 | 0.00 | 0.00 | 83 | 1001.3 |
| 20260507045802 | 78 | 80 | 2.6 | 6.1 | 0.00 | 0.00 | 0.00 | 83 | 1001.4 |
| 20260507045259 | 78 | 80 | 1.7 | 5.2 | 0.00 | 0.00 | 0.00 | 83 | 1001.4 |
| 20260507044802 | 78 | 85 | 1.7 | 6.1 | 0.00 | 0.00 | 0.00 | 83 | 1001.5 |
| 20260507044259 | 78 | 87 | 2.6 | 6.1 | 0.00 | 0.00 | 0.00 | 83 | 1001.7 |
| 20260507043801 | 78 | 86 | 0.9 | 8.7 | 0.00 | 0.00 | 0.00 | 83 | 1001.6 |
| 20260507042802 | 78 | 82 | 0.0 | 7.8 | 0.00 | 0.00 | 0.00 | 83 | 1001.7 |
| 20260507042259 | 78 | 87 | 2.6 | 7.8 | 0.00 | 0.00 | 0.00 | 82 | 1001.8 |
| 20260507041800 | 79 | 92 | 0.0 | 7.8 | 0.00 | 0.00 | 0.00 | 83 | 1001.7 |
| 20260507040800 | 79 | 80 | 1.7 | 9.6 | 0.00 | 0.00 | 0.00 | 82 | 1001.9 |
| 20260507040258 | 79 | 82 | 3.5 | 9.6 | 0.00 | 0.00 | 0.00 | 82 | 1001.8 |
| 20260507035800 | 79 | 92 | 2.6 | 7.8 | 0.00 | 0.00 | 0.00 | 82 | 1001.8 |
| 20260507035258 | 79 | 93 | 1.7 | 7.8 | 0.00 | 0.00 | 0.00 | 82 | 1001.8 |
| 20260507034800 | 79 | 56 | 2.6 | 7.8 | 0.00 | 0.00 | 0.00 | 82 | 1001.8 |
| 20260507034258 | 79 | 93 | 1.7 | 7.8 | 0.00 | 0.00 | 0.00 | 82 | 1001.8 |
| 20260507033759 | 79 | 93 | 1.7 | 7.8 | 0.00 | 0.00 | 0.00 | 82 | 1001.8 |
| 20260507033256 | 79 | 78 | 1.7 | 6.1 | 0.00 | 0.00 | 0.00 | 82 | 1001.8 |
| 20260507032800 | 79 | 76 | 0.9 | 7.8 | 0.00 | 0.00 | 0.00 | 82 | 1001.8 |
| 20260507032256 | 79 | 73 | 1.7 | 7.8 | 0.00 | 0.00 | 0.00 | 82 | 1001.9 |
| 20260507031257 | 80 | 85 | 0.0 | 5.2 | 0.00 | 0.00 | 0.00 | 81 | 1001.7 |
| 20260507030258 | 80 | 71 | 1.7 | 6.1 | 0.00 | 0.00 | 0.00 | 81 | 1001.7 |
| 20260507025759 | 80 | 76 | 0.9 | 8.7 | 0.00 | 0.00 | 0.00 | 81 | 1001.7 |
| 20260507025256 | 80 | 80 | 4.3 | 9.6 | 0.00 | 0.00 | 0.00 | 81 | 1001.8 |
| 20260507024800 | 80 | 69 | 3.5 | 9.6 | 0.00 | 0.00 | 0.00 | 81 | 1001.8 |
| 20260507024256 | 80 | 69 | 2.6 | 8.7 | 0.00 | 0.00 | 0.00 | 80 | 1001.8 |
| 20260507023759 | 80 | 71 | 3.5 | 8.7 | 0.00 | 0.00 | 0.00 | 80 | 1001.8 |
| 20260507023256 | 80 | 41 | 4.3 | 8.7 | 0.00 | 0.00 | 0.00 | 80 | 1001.8 |
| 20260507022759 | 80 | 100 | 1.7 | 7.8 | 0.00 | 0.00 | 0.00 | 80 | 1001.8 |
| 20260507022255 | 80 | 69 | 1.7 | 10.4 | 0.00 | 0.00 | 0.00 | 80 | 1001.7 |
| 20260507020758 | 80 | 89 | 3.5 | 10.4 | 0.00 | 0.00 | 0.00 | 79 | 1001.6 |
| 20260507020256 | 80 | 76 | 3.5 | 10.4 | 0.00 | 0.00 | 0.00 | 78 | 1001.6 |
| 20260507015256 | 81 | 86 | 1.7 | 9.6 | 0.00 | 0.00 | 0.00 | 77 | 1001.6 |
| 20260507014758 | 81 | 68 | 1.7 | 8.7 | 0.00 | 0.00 | 0.00 | 77 | 1001.6 |
| 20260507013758 | 81 | 93 | 1.7 | 10.4 | 0.00 | 0.00 | 0.00 | 76 | 1001.4 |
| 20260507012755 | 81 | 59 | 1.7 | 12.2 | 0.00 | 0.00 | 0.00 | 75 | 1001.3 |
| 20260507012254 | 81 | 85 | 3.5 | 8.7 | 0.00 | 0.00 | 0.00 | 75 | 1001.2 |
| 20260507011254 | 82 | 65 | 4.3 | 9.6 | 0.00 | 0.00 | 0.00 | 73 | 1001.1 |
| 20260507010757 | 82 | 83 | 1.7 | 9.6 | 0.00 | 0.00 | 0.00 | 73 | 1001.0 |
| 20260507010254 | 82 | 66 | 1.7 | 7.8 | 0.00 | 0.00 | 0.00 | 73 | 1001.0 |
| 20260507005757 | 82 | 65 | 1.7 | 8.7 | 0.00 | 0.00 | 0.00 | 73 | 1001.0 |
| 20260507005252 | 82 | 65 | 2.6 | 9.6 | 0.00 | 0.00 | 0.00 | 74 | 1000.9 |
| 20260507004755 | 83 | 85 | 3.5 | 9.6 | 0.00 | 0.00 | 0.00 | 74 | 1000.8 |
| 20260507004252 | 83 | 66 | 3.5 | 9.6 | 0.00 | 0.00 | 0.00 | 75 | 1000.7 |
| 20260507003754 | 83 | 76 | 2.6 | 8.7 | 0.00 | 0.00 | 0.00 | 76 | 1000.7 |
| 20260507003252 | 83 | 75 | 2.6 | 9.6 | 0.00 | 0.00 | 0.00 | 76 | 1000.7 |
| 20260507002253 | 83 | 97 | 3.5 | 9.6 | 0.00 | 0.00 | 0.00 | 76 | 1000.5 |
| 20260507001757 | 83 | 94 | 3.5 | 9.6 | 0.00 | 0.00 | 0.00 | 76 | 1000.4 |
| 20260507001253 | 83 | 96 | 4.3 | 12.2 | 0.00 | 0.00 | 0.00 | 76 | 1000.3 |
| 20260507000753 | 83 | 97 | 5.2 | 12.2 | 0.00 | 0.00 | 0.00 | 76 | 1000.2 |
| 20260507000251 | 84 | 92 | 7.0 | 12.2 | 0.00 | 0.00 | 0.00 | 75 | 1000.2 |
| 20260506235754 | 84 | 86 | 5.2 | 12.2 | 0.00 | 0.00 | 0.00 | 74 | 1000.2 |
| 20260506235254 | 84 | 65 | 3.5 | 11.3 | 0.00 | 0.00 | 0.00 | 73 | 1000.0 |
| 20260506234755 | 84 | 85 | 2.6 | 10.4 | 0.00 | 0.00 | 0.00 | 73 | 999.9 |
| 20260506234253 | 84 | 89 | 3.5 | 10.4 | 0.00 | 0.00 | 0.00 | 72 | 1000.0 |
| 20260506233755 | 84 | 78 | 2.6 | 10.4 | 0.00 | 0.00 | 0.00 | 71 | 999.9 |
| 20260506233252 | 84 | 75 | 0.9 | 9.6 | 0.00 | 0.00 | 0.00 | 71 | 999.8 |
| 20260506232756 | 85 | 79 | 2.6 | 8.7 | 0.00 | 0.00 | 0.00 | 71 | 999.8 |
| 20260506232252 | 85 | 86 | 4.3 | 8.7 | 0.00 | 0.00 | 0.00 | 70 | 999.7 |
| 20260506231755 | 85 | 75 | 0.0 | 10.4 | 0.00 | 0.00 | 0.00 | 70 | 999.6 |
| 20260506231255 | 85 | 92 | 2.6 | 10.4 | 0.00 | 0.00 | 0.00 | 70 | 999.6 |
| 20260506230754 | 85 | 62 | 3.5 | 8.7 | 0.00 | 0.00 | 0.00 | 69 | 999.6 |
| 20260506230304 | 85 | 63 | 3.5 | 8.7 | 0.00 | 0.00 | 0.00 | 69 | 999.4 |
| 20260506225755 | 85 | 83 | 3.5 | 9.6 | 0.00 | 0.00 | 0.00 | 69 | 999.3 |
| 20260506225251 | 85 | 89 | 3.5 | 12.2 | 0.00 | 0.00 | 0.00 | 68 | 999.3 |
| 20260506224754 | 85 | 61 | 5.2 | 13.9 | 0.00 | 0.00 | 0.00 | 68 | 999.3 |
| 20260506224251 | 86 | 58 | 4.3 | 14.8 | 0.00 | 0.00 | 0.00 | 67 | 999.3 |
| 20260506223250 | 86 | 75 | 3.5 | 12.2 | 0.00 | 0.00 | 0.00 | 66 | 999.3 |
| 20260506222754 | 86 | 71 | 4.3 | 13.9 | 0.00 | 0.00 | 0.00 | 66 | 999.3 |
| 20260506222250 | 86 | 59 | 6.1 | 13.9 | 0.00 | 0.00 | 0.00 | 65 | 999.2 |
| 20260506221756 | 87 | 61 | 1.7 | 10.4 | 0.00 | 0.00 | 0.00 | 65 | 999.1 |
| 20260506221250 | 87 | 63 | 5.2 | 12.2 | 0.00 | 0.00 | 0.00 | 65 | 999.0 |
| 20260506220753 | 87 | 55 | 6.1 | 14.8 | 0.00 | 0.00 | 0.00 | 65 | 998.9 |
| 20260506220251 | 87 | 55 | 5.2 | 14.8 | 0.00 | 0.00 | 0.00 | 64 | 998.9 |
| 20260506215754 | 87 | 65 | 4.3 | 11.3 | 0.00 | 0.00 | 0.00 | 65 | 998.9 |
| 20260506214249 | 88 | 56 | 5.2 | 14.8 | 0.00 | 0.00 | 0.00 | 65 | 998.7 |
| 20260506213753 | 88 | 48 | 4.3 | 11.3 | 0.00 | 0.00 | 0.00 | 65 | 998.6 |
| 20260506212752 | 89 | 62 | 6.1 | 11.3 | 0.00 | 0.00 | 0.00 | 65 | 998.7 |
| 20260506212249 | 89 | 45 | 4.3 | 11.3 | 0.00 | 0.00 | 0.00 | 65 | 998.6 |
| 20260506211753 | 89 | 49 | 4.3 | 13.9 | 0.00 | 0.00 | 0.00 | 64 | 998.5 |
| 20260506211249 | 89 | 55 | 7.8 | 13.9 | 0.00 | 0.00 | 0.00 | 64 | 998.4 |
| 20260506210752 | 89 | 65 | 7.0 | 13.9 | 0.00 | 0.00 | 0.00 | 64 | 998.4 |
| 20260506210249 | 89 | 72 | 8.7 | 13.9 | 0.00 | 0.00 | 0.00 | 63 | 998.4 |
| 20260506205752 | 89 | 68 | 5.2 | 15.6 | 0.00 | 0.00 | 0.00 | 64 | 998.4 |
| 20260506204752 | 90 | 38 | 9.6 | 14.8 | 0.00 | 0.00 | 0.00 | 64 | 998.3 |
| 20260506204249 | 90 | 87 | 4.3 | 17.4 | 0.00 | 0.00 | 0.00 | 64 | 998.4 |
| 20260506203752 | 90 | 55 | 8.7 | 17.4 | 0.00 | 0.00 | 0.00 | 63 | 998.4 |
| 20260506202751 | 90 | 59 | 7.8 | 13.9 | 0.00 | 0.00 | 0.00 | 61 | 998.5 |
| 20260506202248 | 91 | 61 | 7.0 | 13.9 | 0.00 | 0.00 | 0.00 | 61 | 998.4 |
| 20260506201751 | 91 | 28 | 5.2 | 17.4 | 0.00 | 0.00 | 0.00 | 61 | 998.2 |
| 20260506201248 | 91 | 55 | 7.8 | 18.2 | 0.00 | 0.00 | 0.00 | 60 | 998.2 |
| 20260506200752 | 91 | 52 | 8.7 | 18.2 | 0.00 | 0.00 | 0.00 | 59 | 998.4 |
| 20260506200247 | 92 | 38 | 8.7 | 17.4 | 0.00 | 0.00 | 0.00 | 59 | 998.2 |
| 20260506195758 | 92 | 31 | 7.0 | 14.8 | 0.00 | 0.00 | 0.00 | 56 | 998.1 |
| 20260506195249 | 92 | 82 | 7.0 | 13.9 | 0.00 | 0.00 | 0.00 | 51 | 998.3 |
| 20260506194247 | 92 | 103 | 3.5 | 8.7 | 0.00 | 0.00 | 0.00 | 51 | 998.3 |
| 20260506193751 | 92 | 73 | 3.5 | 8.7 | 0.00 | 0.00 | 0.00 | 51 | 998.4 |
| 20260506193247 | 92 | 56 | 3.5 | 7.8 | 0.00 | 0.00 | 0.00 | 52 | 998.3 |
| 20260506192750 | 92 | 76 | 1.7 | 7.8 | 0.00 | 0.00 | 0.00 | 53 | 998.3 |
| 20260506192247 | 92 | 73 | 1.7 | 9.6 | 0.00 | 0.00 | 0.00 | 53 | 998.3 |
| 20260506191752 | 92 | 54 | 3.5 | 10.4 | 0.00 | 0.00 | 0.00 | 54 | 998.4 |
| 20260506191247 | 91 | 41 | 6.1 | 10.4 | 0.00 | 0.00 | 0.00 | 54 | 998.5 |
| 20260506190749 | 91 | 96 | 5.2 | 11.3 | 0.00 | 0.00 | 0.00 | 58 | 998.6 |
| 20260506190246 | 91 | 41 | 6.1 | 13.0 | 0.00 | 0.00 | 0.00 | 58 | 998.5 |
| 20260506185749 | 91 | 44 | 5.2 | 13.0 | 0.00 | 0.00 | 0.00 | 58 | 998.6 |
| 20260506185249 | 91 | 21 | 4.3 | 9.6 | 0.00 | 0.00 | 0.00 | 58 | 998.7 |
| 20260506184752 | 91 | 47 | 4.3 | 14.8 | 0.00 | 0.00 | 0.00 | 57 | 998.8 |
| 20260506183751 | 92 | 59 | 3.5 | 7.8 | 0.00 | 0.00 | 0.00 | 53 | 999.0 |
| 20260506183248 | 92 | 102 | 2.6 | 5.2 | 0.00 | 0.00 | 0.00 | 51 | 998.9 |
| 20260506182751 | 92 | 133 | 2.6 | 10.4 | 0.00 | 0.00 | 0.00 | 51 | 998.9 |
| 20260506181748 | 91 | 51 | 2.6 | 10.4 | 0.00 | 0.00 | 0.00 | 58 | 999.1 |
| 20260506181247 | 91 | 51 | 2.6 | 11.3 | 0.00 | 0.00 | 0.00 | 58 | 999.3 |
| 20260506180757 | 91 | 44 | 3.5 | 11.3 | 0.00 | 0.00 | 0.00 | 58 | 999.4 |
| 20260506180247 | 91 | 21 | 2.6 | 13.0 | 0.00 | 0.00 | 0.00 | 58 | 999.4 |
| 20260506175750 | 92 | 87 | 5.2 | 13.0 | 0.00 | 0.00 | 0.00 | 57 | 999.4 |
| 20260506175247 | 92 | 54 | 2.6 | 9.6 | 0.00 | 0.00 | 0.00 | 57 | 999.5 |
| 20260506174750 | 92 | 51 | 0.9 | 9.6 | 0.00 | 0.00 | 0.00 | 56 | 999.7 |
| 20260506174246 | 92 | 30 | 3.5 | 10.4 | 0.00 | 0.00 | 0.00 | 51 | 999.6 |
| 20260506173750 | 92 | 62 | 0.9 | 10.4 | 0.00 | 0.00 | 0.00 | 54 | 999.7 |
| 20260506173246 | 93 | 38 | 4.3 | 8.7 | 0.00 | 0.00 | 0.00 | 52 | 999.8 |
| 20260506172748 | 93 | 61 | 0.0 | 12.2 | 0.00 | 0.00 | 0.00 | 53 | 999.9 |
| 20260506172246 | 93 | 78 | 3.5 | 12.2 | 0.00 | 0.00 | 0.00 | 49 | 1000.0 |
| 20260506171749 | 94 | 78 | 1.7 | 11.3 | 0.00 | 0.00 | 0.00 | 49 | 1000.0 |
| 20260506171246 | 93 | 120 | 3.5 | 11.3 | 0.00 | 0.00 | 0.00 | 49 | 1000.1 |
| 20260506170246 | 92 | 125 | 2.6 | 8.7 | 0.00 | 0.00 | 0.00 | 50 | 1000.2 |
| 20260506165753 | 92 | 149 | 0.9 | 10.4 | 0.00 | 0.00 | 0.00 | 51 | 1000.0 |
| 20260506165246 | 92 | 131 | 3.5 | 10.4 | 0.00 | 0.00 | 0.00 | 51 | 1000.4 |
| 20260506164749 | 92 | 134 | 4.3 | 9.6 | 0.00 | 0.00 | 0.00 | 52 | 1000.3 |
| 20260506163748 | 91 | 104 | 3.5 | 10.4 | 0.00 | 0.00 | 0.00 | 53 | 1000.5 |
| 20260506162801 | 91 | 110 | 2.6 | 10.4 | 0.00 | 0.00 | 0.00 | 53 | 1000.9 |
| 20260506162244 | 92 | 92 | 3.5 | 10.4 | 0.00 | 0.00 | 0.00 | 52 | 1001.0 |
| 20260506161801 | 92 | 76 | 2.6 | 10.4 | 0.00 | 0.00 | 0.00 | 53 | 1001.2 |
| 20260506160755 | 92 | 89 | 2.6 | 12.2 | 0.00 | 0.00 | 0.00 | 52 | 1001.1 |
| 20260506160245 | 91 | 47 | 5.2 | 12.2 | 0.00 | 0.00 | 0.00 | 53 | 1001.4 |